Regional Weather Roundup
Issued by NWS

Home | Current Version | Previous Version | Text Only | Print | Product List | Glossary On
Versions: 1 2 3 4 5 6 7 8 9 10 11 12 13 14 15 16 17 18 19 20 21 22 23 24 25 26 27 28 29 30 31 32 33 34 35 36 37 38 39 40 41 42 43 44 45 46 47 48 49 50
000
ASUS43 KIND 020459
RWRIN

WEATHER ROUNDUP FOR INDIANA
NATIONAL WEATHER SERVICE INDIANAPOLIS IN
1200 AM EST MON MAR 02 2015

NOTE: "FAIR" INDICATES FEW OR NO CLOUDS BELOW 12,000 FEET WITH NO
SIGNIFICANT WEATHER AND/OR OBSTRUCTIONS TO VISIBILITY.

* - STATION DOES NOT REPORT WEATHER SUCH AS PRECIPITATION OR FOG.

+ - STATION NOT QUALITY CONTROLLED BY THE NATIONAL WEATHER SERVICE.
    USE DATA WITH CAUTION...ESPECIALLY DEWPOINT AND RELATIVE
    HUMIDITY OBSERVATIONS.

INZ001>003-010>013-019-020-020600-
NORTHWEST INDIANA

CITY           SKY/WX    TMP DP  RH WIND       PRES   REMARKS
MONTICELLO +   FAIR      15  13  90 W8        30.37S WCI   4
VALPARAISO     NOT AVBL

$$

LMZ046-743>745-020600-
SOUTHERN LAKE MICHIGAN

STATION/POSITION TIME  TEMP WIND        PRES
                       AIR  DIR/SP/G
                 (UTC) (F)  (DEG/KT/KT) (MB)
MICHIGAN CITY    0400   19  210/ 14/ 15   N/A

$$

INZ004-005-014>016-021>024-020600-
NORTH CENTRAL INDIANA

CITY           SKY/WX    TMP DP  RH WIND       PRES   REMARKS
GOSHEN         PTCLDY    17  12  80 W14       30.31R WCI   3
SOUTH BEND     PTCLDY    17  11  77 W10       30.31S WCI   5

$$

INZ006>009-017-018-025>027-020600-
NORTHEAST INDIANA

CITY           SKY/WX    TMP DP  RH WIND       PRES   REMARKS
ANGOLA *+      CLOUDY    21  10  63 W12       30.26R WCI   9
FORT WAYNE     MOCLDY    19  15  84 W14       30.32R WCI   6

$$

INZ028-029-035-036-043>045-051>053-020600-
WEST CENTRAL INDIANA

CITY           SKY/WX    TMP DP  RH WIND       PRES   REMARKS
CRAWFORDSVL +  MOCLDY    19  13  77 W8        30.39S WCI   9
GREENCASTLE +  MOCLDY    23  18  80 CALM      30.40S
LAFAYETTE      PTCLDY    16  14  92 W6        30.40R WCI   7
TERRE HAUTE    MOCLDY    23  18  81 NW8       30.43S WCI  14

$$

INZ030>032-037>040-046>048-054>057-064-065-020600-
CENTRAL INDIANA

CITY           SKY/WX    TMP DP  RH WIND       PRES   REMARKS
GREENWOOD *+   CLOUDY    25  18  74 NW13G20   30.39R WCI  13
INDIANAPOLIS   PTCLDY    23  18  81 W12       30.38R WCI  12
-EAGLE CREEK   CLOUDY    22  18  85 NW9       30.38S WCI  12
KOKOMO *+      PTCLDY    16  10  79 W10       30.37R WCI   3
MT COMFORT *+  MOCLDY    23  14  68 NW15      30.38R WCI  10
SHELBYVILLE    MOCLDY    27  19  72 NW18      30.37R WCI  14

$$

INZ033-034-041-042-049-050-058-059-020600-
EAST CENTRAL INDIANA

CITY           SKY/WX    TMP DP  RH WIND       PRES   REMARKS
MUNCIE         MOCLDY    21  17  84 W12       30.35R WCI   9

$$

INZ060-061-067>069-081>083-085>088-020600-
SOUTHWEST INDIANA

CITY           SKY/WX    TMP DP  RH WIND       PRES   REMARKS
EVANSVILLE     MOCLDY    31  25  78 N8        30.44R WCI  23
HUNTINGBURG *+ PTCLDY    30  25  80 NW13      30.43R WCI  20

$$

INZ062-063-066-070>080-084-089>092-020600-
SOUTH CENTRAL AND SOUTHEAST INDIANA

CITY           SKY/WX    TMP DP  RH WIND       PRES   REMARKS
BLOOMINGTON    CLOUDY    26  21  81 NW8       30.40R WCI  18
SEYMOUR +      CLOUDY    32  27  80 NW9       30.38R WCI  24

$$



USA.gov is the U.S. government's official web portal to all federal, state and local government web resources and services.